OBJECT C, 100653

Orbit data source: Space-Track

You're viewing an uncataloged RSO

Recently launched and/or uncataloged RSOs may have evolving metadata. Metadata may include the following, but is not limited to: Owner, Manufacturer, Bus, Motor, and Mission.

OBJECT C, 100653 is a Chinese satellite in LEO that was launched on Thu, 10 Sep 2026 UTC launched from the Jiuquan Satellite Launch Center, China (JSC). Unknown objects in Earth's orbit typically refer to objects detected orbiting the Earth but have not yet been identified or cataloged. These objects could be anything from previously untracked satellites, spent rocket stages, debris from satellite collisions, or even natural meteoroids temporarily captured by Earth's gravity.

Loading next visibility...
Identifier
100653, 2026-205C
Orbit
LEO
Country
Flag of CNCN / PRC
Related business
None
Manufacturer
Unknown
Mission
Operational spacecraft
Bus & Motor
Unknown
Mass
Unknown
Launch date (UTC)
2026-09-10 (3 days ago)
Launch vehicle
Unknown
Launch site
Jiuquan Satellite Launch Center, China (JSC)
Object type
Unknown
Shape & HBR
Unknown
Radar Cross Section
RCS unknown

Expand to show TLE details & history
Last TLE update: 6 hours ago

TLE from 6 hours ago
0 OBJECT C
1 A0653U 26205C   26255.92872377  .00001304  00000-0  80613-4 0  9994
2 A0653  44.9975  94.5774 0007804 278.7271  81.2723 15.15857225   399
Epoch: 2026-09-12T22:17Z
TLE epoch observation values (Epoch: 2026-09-12T22:17:21.733Z)
Latitude
-0.00006°
Longitude
128.3061°
Altitude
517.563 km
Speed
7.607 km/s
True Right ascension
06h 18m 18s
True Declination
0° 00' 00"
Sunlit
Object was in daylight at epoch
Visualization orbit readout
Latitude
Unknown
Longitude
Unknown
Altitude
Unknown
Speed
Unknown
Apparent Right ascension
Unknown
Apparent Declination
Unknown
Sunlit
N/A
Visualization observer readout
Local Sidereal Time
20:48:29
Azimuth
Unknown
Elevation
Unknown
Doppler factor
Unknown
Orbital elements
Apogee altitude
525.362 km
Perigee altitude
514.595 km
Semi-major axis
6,898.116 km
Eccentricity
0.00078
Inclination
44.9975°
RAAN
94.5774°
Arg. of periapsis
278.7271°
True anomaly
81.3607°
Mean anomaly
81.2723°
Eccentric anomaly
81.3165°
Mean motion
3.78833 °/min
Orbital period
95.03 mins
BSTAR
0.000080613
Loading maneuver chart data...
Computing Atmospheric mass density...
Loading historical data...
Loading historical data...
Loading historical data...
Loading historical data...
Loading historical data...
Loading historical data...
Loading historical data...
Other satellites on launch #205 in the year 2026 (2026-09-10 UTC)

Documentation

Showing up to 5 results
|